Regional Weather Roundup
Issued by NWS

Home | Current Version | Previous Version | Text Only | Print | Product List | Glossary On
Versions: 1 2 3 4 5 6 7 8 9 10 11 12 13 14 15 16 17 18 19 20 21 22 23 24 25 26 27 28 29 30 31 32 33 34 35 36 37 38 39 40 41 42 43 44 45 46 47 48 49
000
ASUS44 KBMX 041710
RWRAL

ALABAMA REGIONAL WEATHER ROUNDUP
NATIONAL WEATHER SERVICE BIRMINGHAM AL
1200 PM CDT FRI SEP 04 2015

NOTE: "FAIR" INDICATES FEW OR NO CLOUDS BELOW 12,000 FEET
WITH NO SIGNIFICANT WEATHER AND/OR OBSTRUCTIONS TO VISIBILITY.

THE REMARK "TC" DENOTES TEMPERATURE IN DEGREES CELSIUS.

ALZ001>011-014-016>018-020-041800-
NORTH ALABAMA

CITY           SKY/WX    TMP DP  RH WIND       PRES   REMARKS
MUSCLE SHOALS  SUNNY     88  68  51 NE3       30.04F HX  91
HUNTSVILLE     MOSUNNY   93  70  46 VRB3      30.03F HX  99
DECATUR        SUNNY     88  71  57 VRB3      30.03F HX  94
HALEYVILLE     FAIR      90  72  55 CALM      30.07F HX  97
GADSDEN        SUNNY     88  70  55 CALM      30.02S HX  92
$$

ALZ012-013-022-023-030>036-040>044-041800-
WEST CENTRAL ALABAMA

CITY           SKY/WX    TMP DP  RH WIND       PRES   REMARKS
TUSCALOOSA     MOSUNNY   89  71  55 NE7       30.01F HX  95
$$

ALZ015-024>027-033>036-040>044-041800-
CENTRAL ALABAMA

CITY           SKY/WX    TMP DP  RH WIND       PRES   REMARKS
BIRMINGHAM     MOSUNNY   88  71  57 NW3       30.05F HX  94
MONTGOMERY     SUNNY     92  70  48 VRB6      30.00F HX  97
SHELBY CO ARPT SUNNY     89  68  49 CALM      30.02F HX  93
MAXWELL AFB    SUNNY     89  73  59 NE2       29.99F HX  96
GREENVILLE     FAIR      90  70  51 CALM      30.01S HX  95
$$

ALZ019-021-028-029-037-038-045>048-041800-
EAST CENTRAL ALABAMA

CITY           SKY/WX    TMP DP  RH WIND       PRES   REMARKS
ANNISTON       SUNNY     89  69  51 NE7       30.02F HX  93
ALEXANDER CITY MOSUNNY   89  70  52 CALM      30.03S HX  94
AUBURN         NOT AVBL
$$

ALZ051>064-041800-
SOUTHWEST ALABAMA

CITY           SKY/WX    TMP DP  RH WIND       PRES   REMARKS
MOBILE         PTSUNNY   87  73  62 VRB6      30.02F HX  94
BROOKLEY FIELD PTSUNNY   88  76  67 E9        30.02F HX  99
EVERGREEN      MOSUNNY   89  72  56 VRB3      30.01F HX  96
$$

ALZ049-050-065>069-041800-
SOUTHEAST ALABAMA

CITY           SKY/WX    TMP DP  RH WIND       PRES   REMARKS
DOTHAN         SUNNY     89  72  56 VRB3      30.04F HX  96
OZARK          MOSUNNY   90  72  56 N6        30.00F HX  97
TROY           MOSUNNY   90  70  51 VRB3      30.01F HX  95
EUFAULA        FAIR      92  74  55 W5        29.99F HX 101
$$


USA.gov is the U.S. government's official web portal to all federal, state and local government web resources and services.